Flag for Germany Weather past 2 weeks in Witzenhausen, Hesse, Germany

43 °F

Passing clouds.

Feels Like: 35 °F
Forecast: 44 / 52 °F
Wind: 15 mph from West

Location: Kassel / Calden

Current Time: Nov 30, 2015 at 9:08:20 AM

Latest Report: Nov 30, 2015 at 7:50 AM

Visibility: N/A

Pressure: 29.98 "Hg

Humidity: 71%

Dew point: 34 °F

Location of WitzenhausenLocation

Historic Weather in Witzenhausen — Graph


Witzenhausen temperature yesterday

Maximum temperature yesterday: 48 °F (at 5:20 PM)
Minimum temperature yesterday: 39 °F (at 7:20 AM)
Average temperature yesterday: 46 °F

Past Weeks' High & Low Weather Summary

High57 °F (Nov 15, 12:20 PM)100% (Nov 15, 7:20 AM)30.24 "Hg (Nov 15, 7:20 AM)
Low30 °F (Nov 27, 7:20 AM)51% (Nov 27, 3:50 PM)29.39 "Hg (Nov 21, 7:50 AM)
Average42 °F86%29.83 "Hg
* Reported Nov 15 7:20 AM — Nov 30 7:20 AM, Witzenhausen, Weather by CustomWeather, © 2015

Note: Actual official high and low records may vary slightly from our data, if they occured in-between our weather recording intervals... More about our weather records


Witzenhausen weather history for previous 24 hours

Time TempWeatherWind HumidityBarometerVisibility
7:20 AM
Mon, Nov 30
43 °FPassing clouds.16 mph71%29.98 "HgN/A
7:50 PM
Sun, Nov 29
48 °FLight rain. Mostly cloudy.21 mph87%29.71 "Hg6 mi
7:20 PM48 °FLight rain. Mostly cloudy.20 mph87%29.71 "Hg6 mi
6:50 PM48 °FLight rain. Overcast.16 mph87%29.71 "Hg6 mi
6:20 PM48 °FLight rain. Mostly cloudy.15 mph87%29.74 "Hg6 mi
5:50 PM48 °FLight rain. Mostly cloudy.18 mph82%29.74 "Hg5 mi
5:20 PM48 °FLight rain. Mostly cloudy.18 mph82%29.74 "Hg4 mi
4:50 PM46 °FLight rain. Overcast.16 mph93%29.74 "Hg4 mi
4:20 PM46 °FLight rain. Mostly cloudy.14 mph93%29.74 "Hg6 mi
3:50 PM46 °FLight rain. Mostly cloudy.13 mph93%29.74 "Hg6 mi
3:20 PM46 °FLight rain. Partly sunny.15 mph87%29.74 "Hg6 mi
2:50 PM46 °FBroken clouds.14 mph87%29.77 "HgN/A
2:20 PM46 °FPartly sunny.14 mph87%29.77 "HgN/A
1:50 PM46 °FPartly sunny.13 mph87%29.77 "HgN/A
1:20 PM46 °FPartly sunny.15 mph87%29.77 "HgN/A
12:50 PM45 °FBroken clouds.15 mph93%29.77 "HgN/A
12:20 PM45 °FLight rain. Partly sunny.14 mph93%29.80 "HgN/A
11:50 AM43 °FLight rain. Broken clouds.13 mph100%29.80 "Hg5 mi
11:20 AM43 °FLight rain. Broken clouds.13 mph93%29.80 "HgN/A
10:20 AM43 °FDrizzle. Partly sunny.17 mph93%29.80 "HgN/A
9:50 AM43 °FDrizzle. Partly sunny.16 mph93%29.80 "HgN/A
Weather by CustomWeather, © 2015

See weather overviewHow to use our weather pages